EW9081 Weather Reports


time (UTC)temp
F
wind
direction
speed
knots
gust
knots
rain 1hr
in
rain 24hr
in
rain mn
in
humidity
%
barometer
mb
20260503194652 80 343 0.0 2.6 0.00 0.00 0.00 56 1010.3
20260503194151 80 284 0.9 2.6 0.00 0.00 0.00 51 1010.4
20260503193652 79 29 0.9 4.3 0.00 0.00 0.00 53 1010.4
20260503193152 79 25 0.9 4.3 0.00 0.00 0.00 56 1010.4
20260503192652 78 21 0.9 4.3 0.00 0.00 0.00 52 1010.4
20260503192158 78 215 0.9 3.5 0.00 0.00 0.00 57 1010.5
20260503192153 78 115 0.9 4.3 0.00 0.00 0.00 54 1010.5
20260503191158 77 180 1.7 4.3 0.00 0.00 0.00 54 1010.7
20260503191153 77 178 1.7 3.5 0.00 0.00 0.00 52 1010.6
20260503190653 77 165 1.7 4.3 0.00 0.00 0.00 54 1010.6
20260503185653 77 184 0.9 4.3 0.00 0.00 0.00 56 1010.8
20260503185153 77 54 0.9 4.3 0.00 0.00 0.00 52 1010.9
20260503184652 77 67 0.9 4.3 0.00 0.00 0.00 53 1010.9
20260503184152 76 172 0.9 2.6 0.00 0.00 0.00 55 1010.9
20260503183649 76 338 0.9 2.6 0.00 0.00 0.00 59 1010.9
20260503183151 76 183 0.9 2.6 0.00 0.00 0.00 56 1011.0
20260503182650 76 169 0.9 2.6 0.00 0.00 0.00 58 1011.0
20260503182155 74 92 0.9 4.3 0.00 0.00 0.00 65 1011.1
20260503182151 75 140 0.9 4.3 0.00 0.00 0.00 62 1011.0
20260503181150 74 74 0.9 4.3 0.00 0.00 0.00 61 1011.1
20260503180650 74 71 1.7 4.3 0.00 0.00 0.00 60 1011.1
20260503180150 73 145 1.7 4.3 0.00 0.00 0.00 60 1011.2
20260503175650 73 161 1.7 5.2 0.00 0.00 0.00 65 1011.2
20260503175150 73 176 1.7 5.2 0.00 0.00 0.00 61 1011.2
20260503174649 72 86 0.9 4.3 0.00 0.00 0.00 60 1011.2
20260503174156 72 173 0.9 3.5 0.00 0.00 0.00 62 1011.3
20260503174149 72 182 0.9 2.6 0.00 0.00 0.00 63 1011.2
20260503173650 72 146 0.9 2.6 0.00 0.00 0.00 60 1011.3
20260503172655 71 70 0.9 3.5 0.00 0.00 0.00 63 1011.3
20260503172650 71 58 0.9 3.5 0.00 0.00 0.00 63 1011.3
20260503171654 71 171 0.0 1.7 0.00 0.00 0.00 63 1011.3
20260503171649 71 175 0.9 3.5 0.00 0.00 0.00 64 1011.3
20260503170651 71 158 0.0 1.7 0.00 0.00 0.00 66 1011.3
20260503170155 70 103 0.0 2.6 0.00 0.00 0.00 68 1011.4
20260503170149 71 157 0.0 2.6 0.00 0.00 0.00 64 1011.4
20260503160148 65 166 0.0 0.0 0.00 0.00 0.00 83 1011.5
20260503160144 66 166 0.0 0.0 0.00 0.00 0.00 81 1011.5
20260503150645 57 167 0.0 0.0 0.00 0.00 0.00 95 1011.7
20260503150641 58 167 0.0 0.0 0.00 0.00 0.00 93 1011.7
20260503140135 49 167 0.0 0.0 0.00 0.00 0.00 95 1011.7
20260503130633 48 167 0.0 0.0 0.00 0.00 0.00 94 1011.4
20260503130133 48 167 0.0 0.0 0.00 0.00 0.00 94 1011.4
20260503120129 50 167 0.0 0.0 0.00 0.00 0.00 92 1011.5
20260503110123 52 177 0.0 0.0 0.00 0.00 0.00 91 1011.6
20260503100121 51 207 0.0 0.0 0.00 0.00 0.00 91 1011.9
20260503090120 52 178 0.0 0.0 0.00 0.00 0.00 92 1012.1
20260503081618 53 178 0.0 0.0 0.00 0.00 0.00 91 1012.3
20260503081119 53 178 0.0 0.0 0.00 0.00 0.00 91 1012.3
20260503080619 53 173 0.0 0.0 0.00 0.00 0.00 91 1012.3
20260503080124 53 173 0.0 0.0 0.00 0.00 0.00 90 1012.3
20260503080118 53 173 0.0 0.0 0.00 0.00 0.00 90 1012.3
20260503072620 54 171 0.0 0.0 0.00 0.00 0.00 86 1012.5
20260503072120 54 171 0.0 0.9 0.00 0.00 0.00 87 1012.5
20260503071618 55 171 0.0 1.7 0.00 0.00 0.00 87 1012.5
20260503071118 55 171 0.0 1.7 0.00 0.00 0.00 87 1012.5
20260503070619 55 171 0.0 1.7 0.00 0.00 0.00 88 1012.5
20260503070117 55 171 0.0 2.6 0.00 0.00 0.00 88 1012.5
20260503060114 57 204 0.0 1.7 0.00 0.00 0.00 86 1012.3
20260503054613 57 204 0.0 1.7 0.00 0.00 0.00 84 1012.3
20260503054116 58 204 0.0 1.7 0.00 0.00 0.00 83 1012.4
20260503054111 58 204 0.0 0.0 0.00 0.00 0.00 83 1012.3
20260503053110 58 204 0.0 1.7 0.00 0.00 0.00 82 1012.4
20260503052613 59 204 0.0 1.7 0.00 0.00 0.00 82 1012.2
20260503052609 59 204 0.0 1.7 0.00 0.00 0.00 82 1012.3
20260503052220 59 204 0.0 1.7 0.00 0.00 0.00 83 1012.4
20260503051107 59 204 0.0 1.7 0.00 0.00 0.00 82 1012.3
20260503050607 59 203 0.0 1.7 0.00 0.00 0.00 82 1012.4
20260503050105 60 203 0.0 1.7 0.00 0.00 0.00 82 1012.4
20260503045605 60 202 0.0 0.0 0.00 0.00 0.00 81 1012.3
20260503045109 60 202 0.0 1.7 0.00 0.00 0.00 82 1012.3
20260503045104 60 202 0.0 1.7 0.00 0.00 0.00 81 1012.3
20260503044104 60 214 0.0 0.0 0.00 0.00 0.00 82 1012.3
20260503043602 60 237 0.0 0.0 0.00 0.00 0.00 82 1012.3
20260503043106 61 237 0.0 0.0 0.00 0.00 0.00 82 1012.3
20260503043101 61 237 0.0 0.0 0.00 0.00 0.00 82 1012.4
20260503042059 61 238 0.0 0.0 0.00 0.00 0.00 81 1012.3
20260503041558 61 238 0.0 0.0 0.00 0.00 0.00 81 1012.1
20260503041105 62 285 0.0 0.0 0.00 0.00 0.00 78 1012.0
20260503041059 61 238 0.0 0.0 0.00 0.00 0.00 80 1012.2
20260503040557 61 238 0.0 0.0 0.00 0.00 0.00 80 1012.1
20260503040057 61 264 0.0 0.0 0.00 0.00 0.00 79 1012.1
20260503035056 62 285 0.0 0.0 0.00 0.00 0.00 78 1011.9
20260503034558 62 286 0.0 0.0 0.00 0.00 0.00 78 1011.8
20260503034101 62 290 0.0 0.9 0.00 0.00 0.00 78 1011.7
20260503034057 62 288 0.0 0.0 0.00 0.00 0.00 78 1011.7
20260503033057 62 290 0.9 2.6 0.00 0.00 0.00 78 1011.7
20260503032556 63 297 0.9 2.6 0.00 0.00 0.00 77 1011.6
20260503032056 62 279 0.0 1.7 0.00 0.00 0.00 77 1011.6
20260503031556 62 278 0.0 1.7 0.00 0.00 0.00 78 1011.5
20260503031057 62 313 0.9 2.6 0.00 0.00 0.00 78 1011.5
20260503030558 62 336 1.7 2.6 0.00 0.00 0.00 78 1011.4
20260503030056 63 302 1.7 2.6 0.00 0.00 0.00 77 1011.5
20260503025556 63 288 0.9 2.6 0.00 0.00 0.00 77 1011.7
20260503025056 64 173 0.0 1.7 0.00 0.00 0.00 76 1011.9
20260503024556 64 169 0.0 0.0 0.00 0.00 0.00 75 1011.8
20260503024057 64 169 0.0 2.6 0.00 0.00 0.00 73 1011.9
20260503023558 65 169 0.0 2.6 0.00 0.00 0.00 72 1012.0
20260503023056 65 169 0.9 4.3 0.00 0.00 0.00 72 1012.0
20260503022557 65 167 1.7 7.0 0.00 0.00 0.00 72 1012.0
20260503022058 65 197 1.7 7.0 0.00 0.00 0.00 72 1012.3
20260503021556 65 200 1.7 7.0 0.00 0.00 0.00 71 1012.3
20260503021055 66 167 1.7 7.0 0.00 0.00 0.00 70 1012.3
20260503020555 66 148 1.7 6.1 0.00 0.00 0.00 70 1012.4
20260503020055 66 172 1.7 3.5 0.00 0.00 0.00 70 1012.2
20260503015554 67 134 1.7 4.3 0.00 0.00 0.00 70 1012.1
20260503015054 67 167 0.9 4.3 0.00 0.00 0.00 71 1012.0
20260503014552 67 153 0.9 3.5 0.00 0.00 0.00 69 1011.8
20260503014053 67 187 0.9 3.5 0.00 0.00 0.00 69 1011.6
20260503013557 68 181 0.9 3.5 0.00 0.00 0.00 68 1011.5
20260503013553 68 171 0.9 3.5 0.00 0.00 0.00 69 1011.6
20260503012552 68 202 0.9 3.5 0.00 0.00 0.00 66 1011.5
20260503012051 68 151 0.9 3.5 0.00 0.00 0.00 65 1011.5
20260503011550 69 170 0.9 3.5 0.00 0.00 0.00 63 1011.5
20260503011050 69 213 0.9 2.6 0.00 0.00 0.00 63 1011.5
20260503010556 70 175 0.9 3.5 0.00 0.00 0.00 63 1011.5
20260503010552 70 192 0.9 2.6 0.00 0.00 0.00 63 1011.5
20260503005551 71 119 0.9 3.5 0.00 0.00 0.00 62 1011.5
20260503005052 71 147 0.9 3.5 0.00 0.00 0.00 61 1011.5
20260503004550 71 13 0.9 3.5 0.00 0.00 0.00 62 1011.4
20260503004055 71 317 0.9 1.7 0.00 0.00 0.00 59 1011.2
20260503004051 72 150 0.9 3.5 0.00 0.00 0.00 60 1011.4
20260503003550 72 287 0.9 1.7 0.00 0.00 0.00 59 1011.4
20260503003047 72 290 0.9 1.7 0.00 0.00 0.00 59 1011.3
20260503002546 71 314 0.9 2.6 0.00 0.00 0.00 60 1011.2
20260503001549 71 286 0.9 2.6 0.00 0.00 0.00 59 1011.2
20260503001544 71 245 0.9 2.6 0.00 0.00 0.00 65 1011.3
20260503000544 70 269 0.9 2.6 0.00 0.00 0.00 65 1011.3
20260503000050 70 306 0.9 3.5 0.00 0.00 0.00 61 1011.4
20260503000045 69 275 1.7 3.5 0.00 0.00 0.00 61 1011.4
20260502235545 69 275 1.7 3.5 0.00 0.00 0.00 60 1011.4
20260502235159 69 21 0.9 3.5 0.00 0.00 0.00 62 1011.5
20260502234044 69 304 0.9 2.6 0.00 0.00 0.00 59 1011.6
20260502233544 69 340 0.9 2.6 0.00 0.00 0.00 62 1011.7
20260502233050 68 323 0.9 3.5 0.00 0.00 0.00 63 1011.8
20260502233045 69 5 1.7 3.5 0.00 0.00 0.00 62 1011.7
20260502232044 68 327 0.9 1.7 0.00 0.00 0.00 64 1011.9
20260502231543 67 190 0.9 2.6 0.00 0.00 0.00 65 1012.0
20260502231042 68 190 0.9 2.6 0.00 0.00 0.00 61 1012.1
20260502230547 69 347 1.7 4.3 0.00 0.00 0.00 61 1012.2
20260502230543 68 265 0.9 2.6 0.00 0.00 0.00 62 1012.1
20260502225542 69 350 0.9 4.3 0.00 0.00 0.00 60 1012.2
20260502225042 69 168 0.9 3.5 0.00 0.00 0.00 62 1012.4
20260502224543 69 165 0.9 3.5 0.00 0.00 0.00 63 1012.5
20260502224042 69 228 0.9 2.6 0.00 0.00 0.00 62 1012.5
20260502223542 68 253 0.9 2.6 0.00 0.00 0.00 65 1012.6
20260502223042 68 58 0.9 2.6 0.00 0.00 0.00 61 1012.8
20260502222540 67 41 0.9 2.6 0.00 0.00 0.00 62 1012.8
20260502222040 67 355 1.7 4.3 0.00 0.00 0.00 61 1012.9
20260502221540 67 12 0.9 4.3 0.00 0.00 0.00 64 1012.9
20260502221040 67 286 0.9 2.6 0.00 0.00 0.00 66 1012.9
20260502220540 66 164 0.9 2.6 0.00 0.00 0.00 64 1013.1
20260502220039 66 172 0.9 2.6 0.00 0.00 0.00 66 1013.2
20260502215540 65 296 0.9 2.6 0.00 0.00 0.00 66 1013.2
20260502215041 65 174 0.9 2.6 0.00 0.00 0.00 67 1013.3
20260502214540 65 171 0.9 2.6 0.00 0.00 0.00 65 1013.3
20260502214040 64 263 1.7 2.6 0.00 0.00 0.00 65 1013.3
20260502213537 64 355 1.7 3.5 0.00 0.00 0.00 66 1013.3
20260502213039 64 222 0.9 4.3 0.00 0.00 0.00 70 1013.5
20260502212537 64 156 0.9 4.3 0.00 0.00 0.00 66 1013.5
20260502212036 64 152 0.9 3.5 0.00 0.00 0.00 67 1013.6
20260502211536 63 159 0.9 3.5 0.00 0.00 0.00 69 1013.7
20260502211038 62 174 0.9 4.3 0.00 0.00 0.00 69 1013.8
20260502211034 63 189 0.9 4.3 0.00 0.00 0.00 74 1013.7
20260502210648 61 169 0.9 3.5 0.00 0.00 0.00 70 1013.9
20260502205540 61 173 0.9 3.5 0.00 0.00 0.00 69 1013.9
20260502205534 61 168 1.7 3.5 0.00 0.00 0.00 71 1013.9
20260502205032 61 146 0.9 3.5 0.00 0.00 0.00 71 1013.9
20260502204645 61 76 0.9 3.5 0.00 0.00 0.00 70 1014.0
20260502203532 60 346 0.9 4.3 0.00 0.00 0.00 70 1014.1
20260502203032 60 355 1.7 4.3 0.00 0.00 0.00 70 1014.1
20260502202539 60 298 1.7 4.3 0.00 0.00 0.00 72 1014.5
20260502202532 61 83 1.7 4.3 0.00 0.00 0.00 69 1014.2
20260502202032 61 250 1.7 6.1 0.00 0.00 0.00 68 1014.3
20260502201532 61 284 1.7 6.1 0.00 0.00 0.00 70 1014.5
20260502200537 60 280 0.9 2.6 0.00 0.00 0.00 74 1014.8
20260502200532 60 284 1.7 4.3 0.00 0.00 0.00 74 1014.6
20260502195530 59 355 1.7 3.5 0.00 0.00 0.00 74 1014.9
20260502195034 58 5 1.7 3.5 0.00 0.00 0.00 75 1015.0
20260502195028 58 22 1.7 3.5 0.00 0.00 0.00 73 1015.2